Weather in Gusevka

Russia / Volgograd Oblast     49˚54′32″N   44˚41′20″E
temp.,
°C
wind,
m/s
gust,
m/s
humid.,
%
clouds,
%
prec.,
mm/h
press.,
hPa
HPBL,
m
17 january, sun
sun1700:00−14˚wsw61493100 0.0 1014426
03:00−16˚wsw5129499 0.0 1015314
06:00−18˚wsw479640 0.0 1014128
09:00−19˚w369454 0.0 101595
12:00−15˚wnw239090 0.0 1016186
15:00−15˚nw009295 0.0 101520
18:00−17˚n2391100 0.0 101635
21:00−16˚ne3591100 0.0 1016121
18 january, mon
mon1800:00−15˚ene3694100 0.1 1015174
03:00−16˚ene4993100 0.1 1015215
06:00−15˚ene5893100 0.0 1014241
09:00−15˚ne4595100 0.7 1015250
12:00−14˚ne5795100 3.2 1015240
15:00−12˚nne4695100 5.4 1014279
18:00−13˚nne3595100 0.5 1014165
21:00−14˚nnw2395100 0.8 101558
19 january, tue
tue1900:00−15˚nw3396100 0.1 101653
03:00−17˚nw3495100 0.1 101635
06:00−19˚nw349678 0.0 101642
09:00−19˚wnw359666 0.0 101895
12:00−16˚w359360 0.0 1018228
15:00−17˚wnw349571 0.0 1017104
18:00−21˚w239928 0.0 101820
21:00−22˚w339849 0.0 101923
20 january, wed
wed2000:00−22˚w339823 0.0 101923
03:00−23˚w349837 0.0 102028
06:00−24˚w349840 0.0 102043
09:00−22˚w479866 0.0 1022185
12:00−19˚w479479 0.0 1022302
15:00−18˚w489484 0.0 1022310
18:00−21˚w459853 0.0 102484
21:00−22˚wnw459727 0.0 102670
21 january, thu
thu2100:00−22˚wnw44970 0.0 102669
03:00−22˚wnw45970 0.0 102880
06:00−22˚wnw45970 0.0 102875
09:00−21˚wnw36970 0.0 102994
12:00−16˚w469333 0.0 1029241
15:00−15˚wsw479362 0.0 1029239
18:00−16˚wsw3694100 0.0 1029122
21:00−15˚sw4890100 0.0 1028195